Time,TemperatureF,DewpointF,PressureIn,WindDirection,WindDirectionDegrees,WindSpeedMPH,WindSpeedGustMPH,Humidity,HourlyPrecipIn,Conditions,Clouds,dailyrainin,SoftwareType,DateUTC
2013-07-01 00:01:00,71.4,61.9,29.86,NE,45,0.0,0.0,72,0.00,,,0.00,WUHU21623XXSP,2013-07-01 04:01:00,
2013-07-01 00:06:00,71.4,61.9,29.86,NE,45,0.0,0.0,72,0.00,,,0.00,WUHU21623XXSP,2013-07-01 04:06:00,
2013-07-01 00:11:00,71.2,61.7,29.86,NE,45,0.0,0.0,72,0.00,,,0.00,WUHU21623XXSP,2013-07-01 04:11:00,
2013-07-01 00:16:00,71.2,61.7,29.86,NE,45,0.0,0.0,72,0.00,,,0.00,WUHU21623XXSP,2013-07-01 04:16:00,
2013-07-01 00:21:00,71.2,62.1,29.86,NE,45,0.7,0.7,73,0.00,,,0.00,WUHU21623XXSP,2013-07-01 04:21:00,
2013-07-01 00:26:00,71.1,61.9,29.86,NE,45,0.0,0.7,73,0.00,,,0.00,WUHU21623XXSP,2013-07-01 04:26:00,
2013-07-01 00:31:00,70.9,61.8,29.85,NE,45,0.0,0.0,73,0.00,,,0.00,WUHU21623XXSP,2013-07-01 04:31:00,
2013-07-01 00:36:00,70.9,61.8,29.85,NE,45,0.0,0.0,73,0.00,,,0.00,WUHU21623XXSP,2013-07-01 04:36:00,
2013-07-01 00:41:00,70.9,62.1,29.85,NE,45,0.0,0.0,74,0.00,,,0.00,WUHU21623XXSP,2013-07-01 04:41:00,
2013-07-01 00:46:00,70.9,62.1,29.85,NE,45,0.0,0.0,74,0.00,,,0.00,WUHU21623XXSP,2013-07-01 04:46:00,
2013-07-01 00:51:00,70.7,62.0,29.86,NE,45,0.0,0.0,74,0.00,,,0.00,WUHU21623XXSP,2013-07-01 04:51:00,
2013-07-01 00:56:00,70.5,61.8,29.85,NE,45,0.0,0.0,74,0.00,,,0.00,WUHU21623XXSP,2013-07-01 04:56:00,
2013-07-01 01:01:00,70.5,61.8,29.85,NE,45,0.0,0.0,74,0.00,,,0.00,WUHU21623XXSP,2013-07-01 05:01:00,
2013-07-01 01:06:00,70.5,62.2,29.85,NE,45,0.0,0.0,75,0.00,,,0.00,WUHU21623XXSP,2013-07-01 05:06:00,
2013-07-01 01:11:00,70.5,62.2,29.85,NE,45,0.0,0.0,75,0.00,,,0.00,WUHU21623XXSP,2013-07-01 05:11:00,
2013-07-01 01:16:00,70.3,62.0,29.85,NE,45,0.0,0.0,75,0.00,,,0.00,WUHU21623XXSP,2013-07-01 05:16:00,
2013-07-01 01:21:00,70.3,62.0,29.85,NE,45,0.0,0.0,75,0.00,,,0.00,WUHU21623XXSP,2013-07-01 05:21:00,
2013-07-01 01:26:00,70.3,62.0,29.85,NE,45,0.0,0.0,75,0.00,,,0.00,WUHU21623XXSP,2013-07-01 05:26:00,
2013-07-01 01:31:00,70.3,62.0,29.85,NE,45,0.0,0.0,75,0.00,,,0.00,WUHU21623XXSP,2013-07-01 05:31:00,
2013-07-01 01:36:00,70.3,62.0,29.86,NE,45,0.0,0.0,75,0.00,,,0.00,WUHU21623XXSP,2013-07-01 05:36:00,
2013-07-01 01:41:00,70.3,62.0,29.86,NE,45,0.0,0.0,75,0.00,,,0.00,WUHU21623XXSP,2013-07-01 05:41:00,
2013-07-01 01:46:00,70.3,62.0,29.85,NE,45,0.0,0.0,75,0.00,,,0.00,WUHU21623XXSP,2013-07-01 05:46:00,
2013-07-01 01:51:00,70.2,61.8,29.85,NE,45,0.0,0.0,75,0.00,,,0.00,WUHU21623XXSP,2013-07-01 05:51:00,
2013-07-01 01:56:00,70.2,61.8,29.85,NE,45,0.0,0.0,75,0.00,,,0.00,WUHU21623XXSP,2013-07-01 05:56:00,
2013-07-01 02:01:00,70.0,61.8,29.85,NE,45,0.0,0.0,75,0.00,,,0.00,WUHU21623XXSP,2013-07-01 06:01:00,
2013-07-01 02:06:00,70.0,62.0,29.85,NE,45,0.0,0.0,76,0.00,,,0.00,WUHU21623XXSP,2013-07-01 06:06:00,
2013-07-01 02:11:00,70.0,62.0,29.85,NE,45,0.0,0.0,76,0.00,,,0.00,WUHU21623XXSP,2013-07-01 06:11:00,
2013-07-01 02:16:00,69.8,61.8,29.85,NE,45,0.0,0.0,76,0.00,,,0.00,WUHU21623XXSP,2013-07-01 06:16:00,
2013-07-01 02:21:00,69.8,62.2,29.86,NE,45,0.0,0.0,77,0.00,,,0.00,WUHU21623XXSP,2013-07-01 06:21:00,
2013-07-01 02:26:00,69.8,62.2,29.86,NE,45,0.0,0.0,77,0.00,,,0.00,WUHU21623XXSP,2013-07-01 06:26:00,
2013-07-01 02:31:00,69.6,62.0,29.86,NE,45,0.0,0.0,77,0.00,,,0.00,WUHU21623XXSP,2013-07-01 06:31:00,
2013-07-01 02:36:00,69.6,62.4,29.86,NE,45,0.0,0.0,78,0.00,,,0.00,WUHU21623XXSP,2013-07-01 06:36:00,
2013-07-01 02:41:00,69.6,62.4,29.86,NE,45,0.0,0.0,78,0.00,,,0.00,WUHU21623XXSP,2013-07-01 06:41:00,
2013-07-01 02:46:00,69.6,62.4,29.85,NE,45,0.0,0.0,78,0.00,,,0.00,WUHU21623XXSP,2013-07-01 06:46:00,
2013-07-01 02:51:00,69.6,62.4,29.85,NE,45,0.0,0.0,78,0.00,,,0.00,WUHU21623XXSP,2013-07-01 06:51:00,
2013-07-01 02:56:00,69.4,62.6,29.85,NE,45,0.0,0.0,79,0.00,,,0.00,WUHU21623XXSP,2013-07-01 06:56:00,
2013-07-01 03:01:00,69.4,62.6,29.85,NE,45,0.0,0.0,79,0.00,,,0.00,WUHU21623XXSP,2013-07-01 07:01:00,
2013-07-01 03:06:00,69.3,62.8,29.85,NE,45,0.0,0.0,80,0.00,,,0.00,WUHU21623XXSP,2013-07-01 07:06:00,
2013-07-01 03:11:00,69.3,62.8,29.85,NE,45,0.0,0.0,80,0.00,,,0.00,WUHU21623XXSP,2013-07-01 07:11:00,
2013-07-01 03:16:00,69.3,62.8,29.85,NE,45,0.0,0.0,80,0.00,,,0.00,WUHU21623XXSP,2013-07-01 07:16:00,
2013-07-01 03:21:00,69.1,62.7,29.85,NE,45,0.0,0.0,80,0.00,,,0.00,WUHU21623XXSP,2013-07-01 07:21:00,
2013-07-01 03:26:00,68.9,62.5,29.85,NE,45,0.0,0.0,80,0.00,,,0.00,WUHU21623XXSP,2013-07-01 07:26:00,
2013-07-01 03:31:00,68.9,62.8,29.85,NE,45,0.0,0.0,81,0.00,,,0.00,WUHU21623XXSP,2013-07-01 07:31:00,
2013-07-01 03:36:00,68.7,62.7,29.86,NE,45,0.0,0.0,81,0.01,,,0.01,WUHU21623XXSP,2013-07-01 07:36:00,
2013-07-01 03:41:00,68.5,62.5,29.86,NE,45,0.0,0.0,81,0.02,,,0.02,WUHU21623XXSP,2013-07-01 07:41:00,
2013-07-01 03:46:00,68.2,62.5,29.86,NE,45,0.0,0.0,82,0.03,,,0.03,WUHU21623XXSP,2013-07-01 07:46:00,
2013-07-01 03:51:00,67.8,62.5,29.87,NE,45,0.0,0.0,83,0.05,,,0.05,WUHU21623XXSP,2013-07-01 07:51:00,
2013-07-01 03:56:00,67.6,62.6,29.86,NE,45,0.0,0.0,84,0.07,,,0.07,WUHU21623XXSP,2013-07-01 07:56:00,
2013-07-01 04:01:00,67.3,62.6,29.85,NE,45,0.0,0.0,85,0.09,,,0.09,WUHU21623XXSP,2013-07-01 08:01:00,
2013-07-01 04:06:00,67.1,62.4,29.86,NE,45,0.0,0.0,85,0.09,,,0.09,WUHU21623XXSP,2013-07-01 08:06:00,
2013-07-01 04:11:00,67.3,62.6,29.86,NE,45,0.0,0.0,85,0.10,,,0.10,WUHU21623XXSP,2013-07-01 08:11:00,
2013-07-01 04:16:00,67.1,62.4,29.86,NE,45,0.0,0.0,85,0.10,,,0.10,WUHU21623XXSP,2013-07-01 08:16:00,
2013-07-01 04:21:00,67.1,62.4,29.86,ENE,67,0.0,0.0,85,0.10,,,0.10,WUHU21623XXSP,2013-07-01 08:21:00,
2013-07-01 04:26:00,66.9,62.6,29.86,ENE,67,0.0,0.0,86,0.10,,,0.10,WUHU21623XXSP,2013-07-01 08:26:00,
2013-07-01 04:31:00,66.9,62.6,29.86,ENE,67,0.0,0.0,86,0.10,,,0.10,WUHU21623XXSP,2013-07-01 08:31:00,
2013-07-01 04:36:00,66.9,62.2,29.86,ENE,67,0.0,0.0,85,0.09,,,0.10,WUHU21623XXSP,2013-07-01 08:36:00,
2013-07-01 04:41:00,66.9,62.6,29.86,ENE,67,0.0,0.0,86,0.08,,,0.10,WUHU21623XXSP,2013-07-01 08:41:00,
2013-07-01 04:46:00,66.9,62.2,29.86,ENE,67,0.0,0.0,85,0.07,,,0.10,WUHU21623XXSP,2013-07-01 08:46:00,
2013-07-01 04:51:00,66.9,62.2,29.86,ENE,67,0.0,0.0,85,0.03,,,0.10,WUHU21623XXSP,2013-07-01 08:51:00,
2013-07-01 04:56:00,66.9,62.6,29.86,ENE,67,0.0,0.0,86,0.03,,,0.11,WUHU21623XXSP,2013-07-01 08:56:00,
2013-07-01 05:01:00,66.9,62.6,29.87,ENE,67,0.0,0.0,86,0.02,,,0.11,WUHU21623XXSP,2013-07-01 09:01:00,
2013-07-01 05:06:00,67.1,62.7,29.88,ENE,67,0.0,0.0,86,0.02,,,0.11,WUHU21623XXSP,2013-07-01 09:06:00,
2013-07-01 05:11:00,67.1,62.7,29.88,ENE,67,0.0,0.0,86,0.01,,,0.11,WUHU21623XXSP,2013-07-01 09:11:00,
2013-07-01 05:16:00,67.1,62.7,29.88,ENE,67,0.0,0.0,86,0.01,,,0.11,WUHU21623XXSP,2013-07-01 09:16:00,
2013-07-01 05:21:00,67.1,62.7,29.88,ENE,67,0.0,0.0,86,0.01,,,0.11,WUHU21623XXSP,2013-07-01 09:21:00,
2013-07-01 05:26:00,67.1,62.7,29.88,ENE,67,0.0,0.0,86,0.01,,,0.11,WUHU21623XXSP,2013-07-01 09:26:00,
2013-07-01 05:31:00,67.1,62.7,29.88,ENE,67,0.0,0.0,86,0.01,,,0.11,WUHU21623XXSP,2013-07-01 09:31:00,
2013-07-01 05:36:00,67.1,62.7,29.88,ENE,67,0.0,0.0,86,0.01,,,0.11,WUHU21623XXSP,2013-07-01 09:36:00,
2013-07-01 05:41:00,67.1,62.7,29.88,ENE,67,0.0,0.0,86,0.01,,,0.11,WUHU21623XXSP,2013-07-01 09:41:00,
2013-07-01 05:46:00,67.1,62.7,29.89,ENE,67,0.0,0.0,86,0.01,,,0.11,WUHU21623XXSP,2013-07-01 09:46:00,
2013-07-01 05:51:00,67.1,62.7,29.89,ENE,67,0.0,0.0,86,0.00,,,0.11,WUHU21623XXSP,2013-07-01 09:51:00,
2013-07-01 05:56:00,67.1,62.7,29.89,ENE,67,0.0,0.0,86,0.00,,,0.11,WUHU21623XXSP,2013-07-01 09:56:00,
2013-07-01 06:01:00,67.1,63.1,29.89,ENE,67,0.0,0.0,87,0.00,,,0.11,WUHU21623XXSP,2013-07-01 10:01:00,
2013-07-01 06:06:00,67.1,63.1,29.89,ENE,67,0.0,0.0,87,0.00,,,0.11,WUHU21623XXSP,2013-07-01 10:06:00,
2013-07-01 06:11:00,67.1,63.1,29.90,ENE,67,0.0,0.0,87,0.00,,,0.11,WUHU21623XXSP,2013-07-01 10:11:00,
2013-07-01 06:16:00,67.1,63.1,29.89,ENE,67,0.0,0.0,87,0.00,,,0.11,WUHU21623XXSP,2013-07-01 10:16:00,
2013-07-01 06:21:00,66.9,62.9,29.89,ENE,67,0.0,0.0,87,0.01,,,0.12,WUHU21623XXSP,2013-07-01 10:21:00,
2013-07-01 06:26:00,66.9,62.9,29.89,ENE,67,0.0,0.0,87,0.01,,,0.12,WUHU21623XXSP,2013-07-01 10:26:00,
2013-07-01 06:31:00,66.9,62.9,29.89,ENE,67,0.0,0.0,87,0.01,,,0.12,WUHU21623XXSP,2013-07-01 10:31:00,
2013-07-01 06:36:00,66.9,62.9,29.89,ENE,67,0.0,0.0,87,0.01,,,0.12,WUHU21623XXSP,2013-07-01 10:36:00,
2013-07-01 06:41:00,66.9,62.9,29.89,ENE,67,0.0,0.0,87,0.01,,,0.12,WUHU21623XXSP,2013-07-01 10:41:00,
2013-07-01 06:46:00,66.9,62.9,29.90,ENE,67,0.0,0.0,87,0.01,,,0.12,WUHU21623XXSP,2013-07-01 10:46:00,
2013-07-01 06:51:00,66.9,62.9,29.90,ENE,67,0.0,0.0,87,0.01,,,0.12,WUHU21623XXSP,2013-07-01 10:51:00,
2013-07-01 06:56:00,66.9,62.9,29.90,ENE,67,0.0,0.0,87,0.01,,,0.12,WUHU21623XXSP,2013-07-01 10:56:00,
2013-07-01 07:01:00,66.9,62.9,29.91,ENE,67,0.0,0.0,87,0.01,,,0.12,WUHU21623XXSP,2013-07-01 11:01:00,
2013-07-01 07:06:00,66.7,62.7,29.90,ENE,67,0.0,0.0,87,0.01,,,0.12,WUHU21623XXSP,2013-07-01 11:06:00,
2013-07-01 07:11:00,66.7,62.7,29.91,ENE,67,0.0,0.0,87,0.02,,,0.13,WUHU21623XXSP,2013-07-01 11:11:00,
2013-07-01 07:16:00,66.7,62.7,29.91,ENE,67,0.0,0.0,87,0.02,,,0.13,WUHU21623XXSP,2013-07-01 11:16:00,
2013-07-01 07:21:00,66.9,62.9,29.91,ENE,67,0.0,0.0,87,0.01,,,0.13,WUHU21623XXSP,2013-07-01 11:21:00,
2013-07-01 07:26:00,66.7,62.7,29.91,ENE,67,0.0,0.0,87,0.01,,,0.13,WUHU21623XXSP,2013-07-01 11:26:00,
2013-07-01 07:31:00,66.9,62.9,29.91,ENE,67,0.0,0.0,87,0.02,,,0.14,WUHU21623XXSP,2013-07-01 11:31:00,
2013-07-01 07:36:00,66.9,63.2,29.91,ENE,67,0.0,0.0,88,0.02,,,0.14,WUHU21623XXSP,2013-07-01 11:36:00,
2013-07-01 07:41:00,66.9,63.2,29.91,ENE,67,0.0,0.0,88,0.02,,,0.14,WUHU21623XXSP,2013-07-01 11:41:00,
2013-07-01 07:46:00,66.7,63.0,29.92,ENE,67,0.0,0.0,88,0.02,,,0.14,WUHU21623XXSP,2013-07-01 11:46:00,
2013-07-01 07:51:00,66.7,62.7,29.92,ENE,67,0.0,0.0,87,0.03,,,0.15,WUHU21623XXSP,2013-07-01 11:51:00,
2013-07-01 07:56:00,66.7,62.7,29.92,ENE,67,0.0,0.0,87,0.04,,,0.16,WUHU21623XXSP,2013-07-01 11:56:00,
2013-07-01 08:01:00,66.7,63.0,29.92,ENE,67,0.0,0.0,88,0.07,,,0.18,WUHU21623XXSP,2013-07-01 12:01:00,
2013-07-01 08:06:00,66.6,62.5,29.92,WSW,247,0.0,0.0,87,0.07,,,0.18,WUHU21623XXSP,2013-07-01 12:06:00,
2013-07-01 08:11:00,66.4,62.3,29.92,WSW,247,0.0,0.0,87,0.05,,,0.18,WUHU21623XXSP,2013-07-01 12:11:00,
2013-07-01 08:16:00,66.4,62.3,29.93,WSW,247,0.0,0.0,87,0.07,,,0.20,WUHU21623XXSP,2013-07-01 12:16:00,
2013-07-01 08:21:00,66.2,62.3,29.92,WSW,247,0.0,0.0,87,0.08,,,0.21,WUHU21623XXSP,2013-07-01 12:21:00,
2013-07-01 08:26:00,66.0,62.0,29.92,WSW,247,0.0,0.0,87,0.07,,,0.21,WUHU21623XXSP,2013-07-01 12:26:00,
2013-07-01 08:31:00,66.0,62.0,29.93,WSW,247,0.0,0.0,87,0.07,,,0.21,WUHU21623XXSP,2013-07-01 12:31:00,
2013-07-01 08:36:00,66.0,62.0,29.93,WSW,247,0.0,0.0,87,0.08,,,0.22,WUHU21623XXSP,2013-07-01 12:36:00,
2013-07-01 08:41:00,66.0,62.0,29.92,WSW,247,0.0,0.0,87,0.08,,,0.22,WUHU21623XXSP,2013-07-01 12:41:00,
2013-07-01 08:46:00,66.0,62.0,29.92,WSW,247,0.0,0.0,87,0.08,,,0.23,WUHU21623XXSP,2013-07-01 12:46:00,
2013-07-01 08:51:00,66.0,62.0,29.92,WSW,247,0.0,0.0,87,0.07,,,0.23,WUHU21623XXSP,2013-07-01 12:51:00,
2013-07-01 08:56:00,66.0,62.0,29.92,WSW,247,0.0,0.0,87,0.09,,,0.25,WUHU21623XXSP,2013-07-01 12:56:00,
2013-07-01 09:01:00,66.2,62.2,29.93,South,180,0.0,0.0,87,0.07,,,0.25,WUHU21623XXSP,2013-07-01 13:01:00,
2013-07-01 09:06:00,66.4,62.7,29.92,SSW,202,0.0,0.0,88,0.07,,,0.25,WUHU21623XXSP,2013-07-01 13:06:00,
2013-07-01 09:11:00,66.6,62.7,29.93,SSW,202,0.0,0.0,88,0.06,,,0.25,WUHU21623XXSP,2013-07-01 13:11:00,
2013-07-01 09:16:00,66.7,63.0,29.93,South,180,0.0,0.0,88,0.06,,,0.25,WUHU21623XXSP,2013-07-01 13:16:00,
2013-07-01 09:21:00,66.9,63.2,29.93,South,180,0.0,0.0,88,0.05,,,0.25,WUHU21623XXSP,2013-07-01 13:21:00,
2013-07-01 09:26:00,66.9,63.2,29.92,South,180,0.0,0.0,88,0.05,,,0.25,WUHU21623XXSP,2013-07-01 13:26:00,
2013-07-01 09:31:00,66.9,63.2,29.93,South,180,0.0,0.0,88,0.05,,,0.25,WUHU21623XXSP,2013-07-01 13:31:00,
2013-07-01 09:36:00,66.9,63.2,29.93,South,180,0.0,0.0,88,0.04,,,0.25,WUHU21623XXSP,2013-07-01 13:36:00,
2013-07-01 09:41:00,66.9,63.2,29.92,South,180,0.0,0.0,88,0.04,,,0.25,WUHU21623XXSP,2013-07-01 13:41:00,
2013-07-01 10:05:00,67.3,63.6,29.92,South,180,0.0,0.0,88,0.00,,,0.25,WUHU21623XXSP,2013-07-01 14:05:00,
2013-07-01 10:10:00,67.3,63.6,29.92,South,180,0.0,0.0,88,0.00,,,0.25,WUHU21623XXSP,2013-07-01 14:10:00,
2013-07-01 10:15:00,67.1,63.4,29.92,South,180,0.0,0.0,88,0.00,,,0.25,WUHU21623XXSP,2013-07-01 14:15:00,
2013-07-01 10:20:00,67.3,63.6,29.92,South,180,0.0,0.0,88,0.00,,,0.25,WUHU21623XXSP,2013-07-01 14:20:00,
2013-07-01 10:25:00,67.5,63.8,29.93,South,180,0.0,0.0,88,0.00,,,0.25,WUHU21623XXSP,2013-07-01 14:25:00,
2013-07-01 10:30:00,67.6,63.9,29.93,South,180,0.0,0.0,88,0.01,,,0.27,WUHU21623XXSP,2013-07-01 14:30:00,
2013-07-01 10:35:00,67.8,64.1,29.93,South,180,0.0,0.0,88,0.01,,,0.27,WUHU21623XXSP,2013-07-01 14:35:00,
2013-07-01 10:40:00,68.2,64.5,29.93,South,180,0.0,0.0,88,0.01,,,0.27,WUHU21623XXSP,2013-07-01 14:40:00,
2013-07-01 10:45:00,68.5,64.8,29.93,South,180,0.0,0.0,88,0.01,,,0.27,WUHU21623XXSP,2013-07-01 14:45:00,
2013-07-01 10:50:00,68.7,65.0,29.94,South,180,0.0,0.0,87,0.01,,,0.27,WUHU21623XXSP,2013-07-01 14:50:00,
2013-07-01 10:55:00,68.7,64.7,29.94,South,180,0.0,0.0,87,0.01,,,0.27,WUHU21623XXSP,2013-07-01 14:55:00,
2013-07-01 11:00:00,68.7,64.3,29.93,South,180,0.0,0.0,86,0.01,,,0.27,WUHU21623XXSP,2013-07-01 15:00:00,
2013-07-01 11:05:00,68.7,64.1,29.93,South,180,0.0,0.0,85,0.01,,,0.27,WUHU21623XXSP,2013-07-01 15:05:00,
2013-07-01 11:10:00,68.7,64.3,29.93,South,180,0.0,0.0,86,0.01,,,0.27,WUHU21623XXSP,2013-07-01 15:10:00,
2013-07-01 11:15:00,68.9,64.5,29.93,South,180,0.0,0.0,86,0.01,,,0.27,WUHU21623XXSP,2013-07-01 15:15:00,
2013-07-01 11:20:00,69.1,64.3,29.93,South,180,0.0,0.0,85,0.01,,,0.27,WUHU21623XXSP,2013-07-01 15:20:00,
2013-07-01 11:25:00,69.6,65.2,29.93,South,180,0.0,0.0,86,0.00,,,0.27,WUHU21623XXSP,2013-07-01 15:25:00,
2013-07-01 11:30:00,70.2,65.0,29.93,South,180,0.0,0.0,84,0.00,,,0.27,WUHU21623XXSP,2013-07-01 15:30:00,
2013-07-01 11:35:00,70.7,65.6,29.93,South,180,0.0,0.0,84,0.00,,,0.27,WUHU21623XXSP,2013-07-01 15:35:00,
2013-07-01 11:40:00,70.7,65.6,29.93,South,180,0.0,0.0,83,0.00,,,0.27,WUHU21623XXSP,2013-07-01 15:40:00,
2013-07-01 11:45:00,70.9,65.4,29.93,South,180,0.0,0.0,83,0.00,,,0.27,WUHU21623XXSP,2013-07-01 15:45:00,
2013-07-01 11:50:00,70.9,65.1,29.93,South,180,0.0,0.0,82,0.00,,,0.27,WUHU21623XXSP,2013-07-01 15:50:00,
2013-07-01 11:55:00,70.9,65.1,29.93,South,180,0.0,0.0,82,0.00,,,0.27,WUHU21623XXSP,2013-07-01 15:55:00,
2013-07-01 12:00:00,71.1,65.1,29.93,South,180,0.0,0.0,82,0.00,,,0.27,WUHU21623XXSP,2013-07-01 16:00:00,
2013-07-01 12:05:00,71.2,65.4,29.92,South,180,0.0,0.0,82,0.00,,,0.27,WUHU21623XXSP,2013-07-01 16:05:00,
2013-07-01 12:10:00,71.4,65.3,29.92,South,180,0.0,0.0,81,0.00,,,0.27,WUHU21623XXSP,2013-07-01 16:10:00,
2013-07-01 12:15:00,71.8,65.3,29.92,South,180,0.0,0.0,81,0.00,,,0.27,WUHU21623XXSP,2013-07-01 16:15:00,
2013-07-01 12:20:00,72.1,65.5,29.92,South,180,0.0,0.0,80,0.00,,,0.27,WUHU21623XXSP,2013-07-01 16:20:00,
2013-07-01 12:25:00,72.1,65.7,29.92,South,180,0.0,0.0,80,0.00,,,0.27,WUHU21623XXSP,2013-07-01 16:25:00,
2013-07-01 12:30:00,72.5,65.7,29.92,South,180,0.0,0.0,80,0.00,,,0.27,WUHU21623XXSP,2013-07-01 16:30:00,
2013-07-01 12:35:00,73.0,66.4,29.92,South,180,0.0,0.0,80,0.00,,,0.27,WUHU21623XXSP,2013-07-01 16:35:00,
2013-07-01 12:40:00,73.0,66.6,29.92,South,180,0.0,0.0,80,0.00,,,0.27,WUHU21623XXSP,2013-07-01 16:40:00,
2013-07-01 12:45:00,73.2,65.6,29.91,South,180,0.0,0.0,77,0.00,,,0.27,WUHU21623XXSP,2013-07-01 16:45:00,
2013-07-01 12:50:00,73.6,66.3,29.92,South,180,0.0,0.0,78,0.00,,,0.27,WUHU21623XXSP,2013-07-01 16:50:00,
2013-07-01 12:55:00,73.6,65.6,29.92,South,180,0.0,0.0,76,0.00,,,0.27,WUHU21623XXSP,2013-07-01 16:55:00,
2013-07-01 13:00:00,73.9,66.3,29.92,South,180,0.0,0.0,77,0.00,,,0.27,WUHU21623XXSP,2013-07-01 17:00:00,
2013-07-01 13:05:00,74.5,66.1,29.92,SSW,202,0.0,0.0,75,0.00,,,0.27,WUHU21623XXSP,2013-07-01 17:05:00,
2013-07-01 13:10:00,74.8,66.0,29.92,WSW,247,0.0,0.0,74,0.00,,,0.27,WUHU21623XXSP,2013-07-01 17:10:00,
2013-07-01 13:15:00,74.8,66.0,29.92,WSW,247,0.0,0.0,74,0.00,,,0.27,WUHU21623XXSP,2013-07-01 17:15:00,
2013-07-01 13:20:00,75.2,65.9,29.92,WSW,247,0.0,0.0,73,0.00,,,0.27,WUHU21623XXSP,2013-07-01 17:20:00,
2013-07-01 13:25:00,75.4,65.7,29.91,WSW,247,0.0,0.0,72,0.00,,,0.27,WUHU21623XXSP,2013-07-01 17:25:00,
2013-07-01 13:30:00,75.7,66.1,29.91,WSW,247,0.0,0.0,72,0.00,,,0.27,WUHU21623XXSP,2013-07-01 17:30:00,
2013-07-01 13:35:00,75.9,65.9,29.91,West,270,0.0,0.0,71,0.00,,,0.27,WUHU21623XXSP,2013-07-01 17:35:00,
2013-07-01 13:41:00,76.3,66.6,29.91,West,270,0.0,0.0,72,0.00,,,0.27,WUHU21623XXSP,2013-07-01 17:41:00,
2013-07-01 13:46:00,76.8,67.1,29.91,WNW,292,0.0,0.0,72,0.00,,,0.27,WUHU21623XXSP,2013-07-01 17:46:00,
2013-07-01 13:51:00,76.8,67.1,29.91,WNW,292,0.0,0.0,72,0.00,,,0.27,WUHU21623XXSP,2013-07-01 17:51:00,
2013-07-01 13:56:00,76.8,66.4,29.90,WNW,292,0.0,0.0,70,0.00,,,0.27,WUHU21623XXSP,2013-07-01 17:56:00,
2013-07-01 14:01:00,77.9,66.9,29.90,WNW,292,0.0,0.0,69,0.00,,,0.27,WUHU21623XXSP,2013-07-01 18:01:00,
2013-07-01 14:06:00,78.1,67.5,29.90,WNW,292,0.0,0.0,70,0.00,,,0.27,WUHU21623XXSP,2013-07-01 18:06:00,
2013-07-01 14:11:00,78.3,67.1,29.91,WNW,292,0.0,0.0,68,0.00,,,0.27,WUHU21623XXSP,2013-07-01 18:11:00,
2013-07-01 14:16:00,78.3,67.2,29.91,WNW,292,0.0,0.0,69,0.00,,,0.27,WUHU21623XXSP,2013-07-01 18:16:00,
2013-07-01 14:21:00,77.7,66.9,29.91,WNW,292,0.0,0.0,68,0.00,,,0.27,WUHU21623XXSP,2013-07-01 18:21:00,
2013-07-01 14:26:00,77.9,66.9,29.91,WNW,292,0.0,0.0,69,0.00,,,0.27,WUHU21623XXSP,2013-07-01 18:26:00,
2013-07-01 14:31:00,78.1,66.7,29.91,WNW,292,0.0,0.0,68,0.00,,,0.27,WUHU21623XXSP,2013-07-01 18:31:00,
2013-07-01 14:36:00,78.6,67.1,29.91,WNW,292,0.0,0.0,68,0.00,,,0.27,WUHU21623XXSP,2013-07-01 18:36:00,
2013-07-01 14:41:00,78.6,66.7,29.91,WNW,292,0.0,0.0,67,0.00,,,0.27,WUHU21623XXSP,2013-07-01 18:41:00,
2013-07-01 14:46:00,78.6,66.7,29.91,WNW,292,0.0,0.0,67,0.00,,,0.27,WUHU21623XXSP,2013-07-01 18:46:00,
2013-07-01 14:51:00,78.6,66.3,29.91,WNW,292,0.0,0.0,66,0.00,,,0.27,WUHU21623XXSP,2013-07-01 18:51:00,
2013-07-01 14:56:00,78.6,66.3,29.90,WNW,292,0.0,0.0,66,0.00,,,0.27,WUHU21623XXSP,2013-07-01 18:56:00,
2013-07-01 15:01:00,79.0,67.0,29.90,WNW,292,1.8,1.8,67,0.00,,,0.27,WUHU21623XXSP,2013-07-01 19:01:00,
2013-07-01 15:06:00,79.5,66.7,29.90,WNW,292,0.0,1.8,65,0.00,,,0.27,WUHU21623XXSP,2013-07-01 19:06:00,
2013-07-01 15:11:00,79.3,66.1,29.90,WNW,292,0.0,0.9,64,0.00,,,0.27,WUHU21623XXSP,2013-07-01 19:11:00,
2013-07-01 15:16:00,79.3,66.1,29.90,NNW,337,0.0,0.0,64,0.00,,,0.27,WUHU21623XXSP,2013-07-01 19:16:00,
2013-07-01 15:21:00,79.5,67.1,29.90,NNW,337,0.7,0.7,66,0.00,,,0.27,WUHU21623XXSP,2013-07-01 19:21:00,
2013-07-01 15:26:00,79.7,66.4,29.91,NNW,337,0.0,0.7,64,0.00,,,0.27,WUHU21623XXSP,2013-07-01 19:26:00,
2013-07-01 15:31:00,79.5,66.3,29.90,NNW,337,0.0,0.7,64,0.00,,,0.27,WUHU21623XXSP,2013-07-01 19:31:00,
2013-07-01 15:36:00,79.5,66.7,29.90,NNW,337,0.0,0.0,65,0.00,,,0.27,WUHU21623XXSP,2013-07-01 19:36:00,
2013-07-01 15:41:00,79.9,67.0,29.91,NW,315,1.1,1.1,65,0.00,,,0.27,WUHU21623XXSP,2013-07-01 19:41:00,
2013-07-01 15:46:00,80.2,66.5,29.90,NW,315,0.0,3.6,63,0.00,,,0.27,WUHU21623XXSP,2013-07-01 19:46:00,
2013-07-01 15:51:00,80.2,66.7,29.90,SW,225,0.0,3.6,64,0.00,,,0.27,WUHU21623XXSP,2013-07-01 19:51:00,
2013-07-01 15:56:00,80.4,66.7,29.90,SW,225,0.0,0.0,63,0.00,,,0.27,WUHU21623XXSP,2013-07-01 19:56:00,
2013-07-01 16:01:00,80.2,66.9,29.90,SW,225,0.0,0.0,64,0.00,,,0.27,WUHU21623XXSP,2013-07-01 20:01:00,
2013-07-01 16:06:00,80.2,66.9,29.90,SSW,202,0.0,0.0,64,0.00,,,0.27,WUHU21623XXSP,2013-07-01 20:06:00,
2013-07-01 16:11:00,80.2,66.9,29.90,SSW,202,0.0,0.0,64,0.00,,,0.27,WUHU21623XXSP,2013-07-01 20:11:00,
2013-07-01 16:16:00,79.7,66.4,29.90,SSW,202,0.0,0.0,64,0.00,,,0.27,WUHU21623XXSP,2013-07-01 20:16:00,
2013-07-01 16:21:00,79.7,66.4,29.90,SSW,202,0.0,0.0,64,0.00,,,0.27,WUHU21623XXSP,2013-07-01 20:21:00,
2013-07-01 16:26:00,79.9,66.1,29.90,SSE,157,0.0,0.0,63,0.00,,,0.27,WUHU21623XXSP,2013-07-01 20:26:00,
2013-07-01 16:31:00,80.1,66.3,29.90,SSE,157,0.0,0.0,63,0.00,,,0.27,WUHU21623XXSP,2013-07-01 20:31:00,
2013-07-01 16:36:00,79.9,65.7,29.90,SE,135,0.0,0.0,62,0.00,,,0.27,WUHU21623XXSP,2013-07-01 20:36:00,
2013-07-01 16:41:00,79.9,65.7,29.89,SE,135,0.0,0.0,62,0.00,,,0.27,WUHU21623XXSP,2013-07-01 20:41:00,
2013-07-01 16:46:00,80.4,67.1,29.89,SSE,157,4.0,4.0,64,0.00,,,0.27,WUHU21623XXSP,2013-07-01 20:46:00,
2013-07-01 16:51:00,81.0,67.2,29.89,SW,225,0.0,4.0,63,0.00,,,0.27,WUHU21623XXSP,2013-07-01 20:51:00,
2013-07-01 16:56:00,81.3,66.6,29.90,SSW,202,0.0,0.0,61,0.00,,,0.27,WUHU21623XXSP,2013-07-01 20:56:00,
2013-07-01 17:01:00,81.1,66.9,29.90,SW,225,0.0,0.0,62,0.00,,,0.27,WUHU21623XXSP,2013-07-01 21:01:00,
2013-07-01 17:06:00,80.8,66.5,29.90,SSW,202,0.0,0.0,62,0.00,,,0.27,WUHU21623XXSP,2013-07-01 21:06:00,
2013-07-01 17:11:00,80.6,66.5,29.90,SSW,202,0.0,0.0,62,0.00,,,0.27,WUHU21623XXSP,2013-07-01 21:11:00,
2013-07-01 17:16:00,80.6,66.4,29.90,SSW,202,0.0,0.0,63,0.00,,,0.27,WUHU21623XXSP,2013-07-01 21:16:00,
2013-07-01 17:21:00,80.8,66.5,29.90,SSW,202,0.0,0.0,62,0.00,,,0.27,WUHU21623XXSP,2013-07-01 21:21:00,
2013-07-01 17:26:00,81.0,66.7,29.90,SW,225,0.0,0.0,62,0.00,,,0.27,WUHU21623XXSP,2013-07-01 21:26:00,
2013-07-01 17:31:00,81.3,67.0,29.89,WSW,247,1.1,1.1,62,0.00,,,0.27,WUHU21623XXSP,2013-07-01 21:31:00,
2013-07-01 17:36:00,81.3,66.6,29.90,WSW,247,0.0,1.1,61,0.00,,,0.27,WUHU21623XXSP,2013-07-01 21:36:00,
2013-07-01 17:41:00,81.0,65.8,29.90,North,0,0.0,0.0,60,0.00,,,0.27,WUHU21623XXSP,2013-07-01 21:41:00,
2013-07-01 17:46:00,81.0,66.7,29.90,North,0,0.0,0.0,62,0.00,,,0.27,WUHU21623XXSP,2013-07-01 21:46:00,
2013-07-01 17:51:00,81.1,66.9,29.90,NNW,337,0.0,0.0,62,0.00,,,0.27,WUHU21623XXSP,2013-07-01 21:51:00,
2013-07-01 17:56:00,81.3,66.6,29.90,NNW,337,0.0,0.0,61,0.00,,,0.27,WUHU21623XXSP,2013-07-01 21:56:00,
2013-07-01 18:01:00,81.7,66.5,29.90,North,0,0.0,0.0,60,0.00,,,0.27,WUHU21623XXSP,2013-07-01 22:01:00,
2013-07-01 18:06:00,81.5,66.7,29.89,North,0,0.0,0.0,61,0.00,,,0.27,WUHU21623XXSP,2013-07-01 22:06:00,
2013-07-01 18:11:00,81.5,66.3,29.89,North,0,0.0,0.0,60,0.00,,,0.27,WUHU21623XXSP,2013-07-01 22:11:00,
2013-07-01 18:16:00,81.3,66.6,29.90,NNE,22,0.0,0.0,61,0.00,,,0.27,WUHU21623XXSP,2013-07-01 22:16:00,
2013-07-01 18:21:00,81.5,66.3,29.90,NNE,22,0.0,0.0,60,0.00,,,0.27,WUHU21623XXSP,2013-07-01 22:21:00,
2013-07-01 18:26:00,81.9,67.1,29.89,NNE,22,0.0,0.0,61,0.00,,,0.27,WUHU21623XXSP,2013-07-01 22:26:00,
2013-07-01 18:31:00,82.2,67.4,29.90,NNE,22,0.0,0.0,61,0.00,,,0.27,WUHU21623XXSP,2013-07-01 22:31:00,
2013-07-01 18:36:00,82.2,67.4,29.90,NNE,22,0.0,0.0,61,0.00,,,0.27,WUHU21623XXSP,2013-07-01 22:36:00,
2013-07-01 18:41:00,82.2,67.4,29.89,NNE,22,0.0,0.0,61,0.00,,,0.27,WUHU21623XXSP,2013-07-01 22:41:00,
2013-07-01 18:46:00,82.6,67.7,29.90,NNE,22,0.0,0.0,61,0.00,,,0.27,WUHU21623XXSP,2013-07-01 22:46:00,
2013-07-01 18:51:00,82.6,67.7,29.90,NNE,22,0.0,0.0,61,0.00,,,0.27,WUHU21623XXSP,2013-07-01 22:51:00,
2013-07-01 18:56:00,82.0,67.7,29.90,East,90,0.0,0.0,62,0.00,,,0.27,WUHU21623XXSP,2013-07-01 22:56:00,
2013-07-01 19:01:00,81.7,67.4,29.90,ENE,67,0.0,0.0,62,0.00,,,0.27,WUHU21623XXSP,2013-07-01 23:01:00,
2013-07-01 19:06:00,81.3,67.5,29.91,ENE,67,0.0,0.0,63,0.00,,,0.27,WUHU21623XXSP,2013-07-01 23:06:00,
2013-07-01 19:11:00,81.1,67.8,29.91,East,90,0.0,0.0,64,0.00,,,0.27,WUHU21623XXSP,2013-07-01 23:11:00,
2013-07-01 19:16:00,80.4,67.1,29.91,ENE,67,0.0,0.7,64,0.00,,,0.27,WUHU21623XXSP,2013-07-01 23:16:00,
2013-07-01 19:21:00,79.9,67.0,29.90,ENE,67,0.0,0.9,65,0.00,,,0.27,WUHU21623XXSP,2013-07-01 23:21:00,
2013-07-01 19:26:00,79.5,66.9,29.91,ENE,67,0.0,0.9,66,0.00,,,0.27,WUHU21623XXSP,2013-07-01 23:26:00,
2013-07-01 19:31:00,79.0,66.2,29.91,ENE,67,0.0,0.0,65,0.00,,,0.27,WUHU21623XXSP,2013-07-01 23:31:00,
2013-07-01 19:36:00,78.6,66.3,29.90,ENE,67,1.1,1.1,66,0.00,,,0.27,WUHU21623XXSP,2013-07-01 23:36:00,
2013-07-01 19:41:00,78.4,66.3,29.90,ENE,67,0.7,1.1,66,0.00,,,0.27,WUHU21623XXSP,2013-07-01 23:41:00,
2013-07-01 19:46:00,78.4,66.1,29.90,ENE,67,0.0,0.7,66,0.00,,,0.27,WUHU21623XXSP,2013-07-01 23:46:00,
2013-07-01 19:51:00,78.3,65.9,29.91,ENE,67,0.0,0.7,66,0.00,,,0.27,WUHU21623XXSP,2013-07-01 23:51:00,
2013-07-01 19:56:00,78.3,65.9,29.91,ENE,67,0.0,0.0,66,0.00,,,0.27,WUHU21623XXSP,2013-07-01 23:56:00,
2013-07-01 20:01:00,78.1,66.7,29.92,East,90,0.0,0.0,68,0.00,,,0.27,WUHU21623XXSP,2013-07-02 00:01:00,
2013-07-01 20:06:00,78.1,66.7,29.92,East,90,0.0,0.0,69,0.00,,,0.27,WUHU21623XXSP,2013-07-02 00:06:00,
2013-07-01 20:11:00,77.5,66.9,29.93,SE,135,0.0,0.0,71,0.00,,,0.27,WUHU21623XXSP,2013-07-02 00:11:00,
2013-07-01 20:16:00,74.5,66.1,29.92,ESE,112,0.0,0.0,75,0.17,,,0.44,WUHU21623XXSP,2013-07-02 00:16:00,
2013-07-01 20:21:00,73.0,65.4,29.92,ESE,112,0.0,0.0,77,0.28,,,0.54,WUHU21623XXSP,2013-07-02 00:21:00,
2013-07-01 20:26:00,72.3,65.5,29.92,ESE,112,0.0,0.0,79,0.30,,,0.56,WUHU21623XXSP,2013-07-02 00:26:00,
2013-07-01 20:31:00,72.3,66.2,29.93,ESE,112,0.0,0.0,81,0.33,,,0.60,WUHU21623XXSP,2013-07-02 00:31:00,
2013-07-01 20:36:00,72.1,65.7,29.93,ESE,112,0.0,0.0,80,0.34,,,0.61,WUHU21623XXSP,2013-07-02 00:36:00,
2013-07-01 20:41:00,72.0,65.5,29.93,ESE,112,0.0,0.0,80,0.34,,,0.61,WUHU21623XXSP,2013-07-02 00:41:00,
2013-07-01 20:46:00,71.2,65.1,29.93,NW,315,0.0,0.0,81,0.36,,,0.63,WUHU21623XXSP,2013-07-02 00:46:00,
2013-07-01 20:51:00,70.5,64.7,29.93,WNW,292,0.0,1.8,82,0.36,,,0.63,WUHU21623XXSP,2013-07-02 00:51:00,
2013-07-01 20:56:00,70.2,64.0,29.93,WNW,292,0.0,1.8,81,0.36,,,0.63,WUHU21623XXSP,2013-07-02 00:56:00,
2013-07-01 21:01:00,69.3,62.8,29.93,WNW,292,0.0,0.0,80,0.37,,,0.64,WUHU21623XXSP,2013-07-02 01:01:00,
2013-07-01 21:06:00,68.5,62.5,29.94,WNW,292,0.0,0.0,81,0.37,,,0.64,WUHU21623XXSP,2013-07-02 01:06:00,
2013-07-01 21:11:00,68.2,62.2,29.94,WNW,292,0.0,0.0,81,0.37,,,0.64,WUHU21623XXSP,2013-07-02 01:11:00,
2013-07-01 21:16:00,67.8,62.5,29.95,WNW,292,0.0,0.0,83,0.14,,,0.64,WUHU21623XXSP,2013-07-02 01:16:00,
2013-07-01 21:21:00,67.8,62.5,29.95,WNW,292,0.0,0.0,83,0.09,,,0.64,WUHU21623XXSP,2013-07-02 01:21:00,
2013-07-01 21:26:00,67.8,62.5,29.95,WNW,292,0.0,0.0,83,0.07,,,0.64,WUHU21623XXSP,2013-07-02 01:26:00,
2013-07-01 21:31:00,67.6,62.3,29.95,WNW,292,0.0,0.0,83,0.04,,,0.64,WUHU21623XXSP,2013-07-02 01:31:00,
2013-07-01 21:36:00,67.6,62.3,29.95,WNW,292,0.0,0.0,83,0.03,,,0.64,WUHU21623XXSP,2013-07-02 01:36:00,
2013-07-01 21:41:00,67.6,62.6,29.95,WNW,292,0.0,0.0,84,0.02,,,0.64,WUHU21623XXSP,2013-07-02 01:41:00,
2013-07-01 21:46:00,67.6,62.6,29.95,WNW,292,0.0,0.0,84,0.01,,,0.64,WUHU21623XXSP,2013-07-02 01:46:00,
2013-07-01 21:51:00,67.6,62.6,29.96,WNW,292,0.0,0.0,84,0.01,,,0.64,WUHU21623XXSP,2013-07-02 01:51:00,
2013-07-01 21:56:00,67.6,63.0,29.96,WNW,292,0.0,0.0,85,0.01,,,0.64,WUHU21623XXSP,2013-07-02 01:56:00,
2013-07-01 22:01:00,67.6,63.0,29.95,WNW,292,0.0,0.0,85,0.00,,,0.64,WUHU21623XXSP,2013-07-02 02:01:00,
2013-07-01 22:06:00,67.8,63.1,29.96,WNW,292,0.0,0.0,85,0.00,,,0.64,WUHU21623XXSP,2013-07-02 02:06:00,
2013-07-01 22:11:00,67.8,63.1,29.96,WNW,292,0.0,0.0,85,0.00,,,0.64,WUHU21623XXSP,2013-07-02 02:11:00,
2013-07-01 22:16:00,67.8,63.1,29.96,WNW,292,0.0,0.0,85,0.00,,,0.64,WUHU21623XXSP,2013-07-02 02:16:00,
2013-07-01 22:21:00,67.8,63.1,29.96,WNW,292,0.0,0.0,85,0.00,,,0.64,WUHU21623XXSP,2013-07-02 02:21:00,
2013-07-01 22:26:00,67.6,63.0,29.96,WNW,292,0.0,0.0,85,0.00,,,0.64,WUHU21623XXSP,2013-07-02 02:26:00,
2013-07-01 22:31:00,67.6,63.0,29.96,WNW,292,0.0,0.0,85,0.00,,,0.64,WUHU21623XXSP,2013-07-02 02:31:00,
2013-07-01 22:36:00,67.6,63.3,29.96,WNW,292,0.0,0.0,86,0.00,,,0.64,WUHU21623XXSP,2013-07-02 02:36:00,
2013-07-01 22:41:00,67.6,63.6,29.96,NW,315,0.0,0.0,87,0.00,,,0.64,WUHU21623XXSP,2013-07-02 02:41:00,
2013-07-01 22:46:00,67.6,63.6,29.96,NW,315,0.0,0.0,87,0.00,,,0.64,WUHU21623XXSP,2013-07-02 02:46:00,
2013-07-01 22:51:00,67.6,63.6,29.96,NW,315,0.0,0.0,87,0.00,,,0.64,WUHU21623XXSP,2013-07-02 02:51:00,
2013-07-01 22:56:00,67.5,63.4,29.96,NW,315,0.0,0.0,87,0.00,,,0.64,WUHU21623XXSP,2013-07-02 02:56:00,
2013-07-01 23:01:00,67.3,62.9,29.97,NW,315,0.0,0.0,86,0.00,,,0.64,WUHU21623XXSP,2013-07-02 03:01:00,
2013-07-01 23:06:00,67.3,62.9,29.97,NW,315,0.0,0.0,86,0.00,,,0.64,WUHU21623XXSP,2013-07-02 03:06:00,
2013-07-01 23:11:00,67.3,62.9,29.98,NW,315,0.0,0.0,86,0.00,,,0.64,WUHU21623XXSP,2013-07-02 03:11:00,
2013-07-01 23:16:00,67.1,63.1,29.98,NW,315,0.0,0.0,87,0.00,,,0.64,WUHU21623XXSP,2013-07-02 03:16:00,
2013-07-01 23:21:00,67.1,63.1,29.98,NW,315,0.0,0.0,87,0.00,,,0.64,WUHU21623XXSP,2013-07-02 03:21:00,
2013-07-01 23:26:00,66.9,62.9,29.98,NW,315,0.0,0.0,87,0.00,,,0.64,WUHU21623XXSP,2013-07-02 03:26:00,
2013-07-01 23:31:00,66.9,62.9,29.98,NW,315,0.0,0.0,87,0.00,,,0.64,WUHU21623XXSP,2013-07-02 03:31:00,
2013-07-01 23:36:00,66.9,62.9,29.98,NW,315,0.0,0.0,87,0.00,,,0.64,WUHU21623XXSP,2013-07-02 03:36:00,
2013-07-01 23:41:00,66.9,62.9,29.98,NW,315,0.0,0.0,87,0.00,,,0.64,WUHU21623XXSP,2013-07-02 03:41:00,
2013-07-01 23:46:00,66.9,62.9,29.98,NW,315,0.0,0.0,87,0.00,,,0.64,WUHU21623XXSP,2013-07-02 03:46:00,
2013-07-01 23:51:00,66.9,62.9,29.98,NW,315,0.0,0.0,87,0.00,,,0.64,WUHU21623XXSP,2013-07-02 03:51:00,
2013-07-01 23:56:00,66.9,62.9,29.98,NW,315,0.0,0.0,87,0.00,,,0.64,WUHU21623XXSP,2013-07-02 03:56:00,